Lexington Weather

Lexington, Massachusetts, USA

44°F
9/20/2020 11:04pm 
  • Lexington Conditions: Clear
  • Temperature: 43.9°F / 6.6°CColder 0.5°F than last hour.
  • Dew Point: 38.1°FIncreased 0.5°Fsince last hour.
  • Relative Humidity: 80%Increased 3.0% since last hour.
  • Wind: Calm, 10-min avg: Calm, gust: None
  • Barometer: 30.53 in Steady
  • Visibility: 10 miles
  • Rain Today: 0.00 in
  •   
Southeast Middlesex County - Special Weather Statement - Special Weather Statement
 - SEE ALL NEARBY ALERTS -

Regional Weather Roundup
for Boston / Norton, MA

        
000
ASUS41 KBOX 151304
RWRBOX

REGIONAL WEATHER ROUNDUP
NATIONAL WEATHER SERVICE BOSTON/NORTON MA
900 AM EDT TUE SEP 15 2020

NOTE:  "FAIR" INDICATES FEW OR NO CLOUDS BELOW 12,000 FEET WITH NO 
SIGNIFICANT WEATHER AND/OR OBSTRUCTIONS TO VISIBILITY.

MAZALL-151400-
EASTERN MASSACHUSETTS
  
CITY           SKY/WX    TMP DP  RH WIND       PRES   REMARKS
BOSTON         MOSUNNY   54  38  54 N9        30.34S                  
BEVERLY        SUNNY     53  41  63 N7        30.33S                  
LAWRENCE       SUNNY     51  43  74 CALM      30.36S                  
BEDFORD        SUNNY     51  42  71 CALM      30.34R                  
BLUE HILL        N/A     50  41  71 N8        30.32R                  
NORWOOD        SUNNY     54  42  64 N5        30.33S                  
MARSHFIELD     PTSUNNY   61  45  55 NE9       30.31S                  
PLYMOUTH       PTSUNNY   55  46  71 NW8       30.31R                  
TAUNTON        SUNNY     56  43  61 VRB5      30.32S                  
NEW BEDFORD    SUNNY     55  43  63 VRB7      30.30S                  
$$

MAZALL-151400-
CAPE COD AND THE ISLANDS
  
CITY           SKY/WX    TMP DP  RH WIND       PRES   REMARKS
FALMOUTH       PTSUNNY   59  43  55 NE13G22   30.30R                  
HYANNIS        PTSUNNY   60  44  55 N12G17    30.28R                  
CHATHAM        PTSUNNY   60  43  53 VRB7      30.29S                  
PROVINCETOWN   PTSUNNY   59  44  57 NE14G20   30.31S                  
NANTUCKET      MOSUNNY   61  44  53 NE13      30.27R                  
MARTHAS VNYRD  CLOUDY    61  44  53 NE13      30.29R                  
$$
 
MAZALL-151400-
CENTRAL AND WESTERN MASSACHUSETTS
  
CITY           SKY/WX    TMP DP  RH WIND       PRES   REMARKS
WORCESTER      SUNNY     50  37  61 N8        30.33S                  
FITCHBURG      SUNNY     52  39  61 N3        30.35S                  
ORANGE         SUNNY     49  41  74 N3        30.36S                  
SPRINGFIELD    MOSUNNY   50  41  71 N8        30.34S                  
WESTFIELD      SUNNY     49  43  80 N3        30.36R                  
NORTH ADAMS    SUNNY     45  41  86 CALM      30.37F                  
PITTSFIELD     SUNNY     45  40  82 CALM      30.34S                  
$$
 
RIZALL-151400-
RHODE ISLAND
  
CITY           SKY/WX    TMP DP  RH WIND       PRES   REMARKS
PROVIDENCE     MOSUNNY   54  40  59 N9        30.33S                  
NEWPORT        SUNNY     55  42  61 N10       30.31S                  
BLOCK ISLAND   SUNNY     55  44  66 N9        30.31S                  
SMITHFIELD     SUNNY     51  42  71 N8        30.33S                  
WESTERLY       SUNNY     54  39  57 N9        30.32F                  
$$
 
CTZALL-151400-
CONNECTICUT
  
CITY           SKY/WX    TMP DP  RH WIND       PRES   REMARKS
BRADLEY INTL   CLOUDY    50  40  68 N7        30.36R                  
HARTFORD       SUNNY     52  40  63 N9        30.36R                  
BRIDGEPORT     SUNNY     55  42  61 N13G20    30.34R                  
DANBURY        SUNNY     51  41  68 NE5       30.36R                  
GROTON         SUNNY     53  41  63 N15       30.32S                  
NEW HAVEN      SUNNY     54  43  66 N14       30.34S                  
CHESTER        FAIR      52  41  66 CALM      30.34R                  
MERIDEN        SUNNY     53  39  59 N6        30.35S                  
WILLIMANTIC    SUNNY     50  41  71 CALM      30.34S                  
OXFORD         SUNNY     49  40  71 NE10      30.35R                  
$$

MEZ002-015-021-024-NHZ003-005-008-011-012-014-VTZ005-008-151400-
NORTHERN NEW ENGLAND
  
CITY           SKY/WX    TMP DP  RH WIND       PRES   REMARKS
PORTLAND ME    SUNNY     53  41  63 CALM      30.34S                  
BANGOR ME      MOSUNNY   51  40  65 NW6       30.31R                  
CONCORD NH     SUNNY     47  41  80 CALM      30.35S                  
MANCHESTER NH  PTSUNNY   52  39  61 NW5       30.33S                  
NASHUA NH      SUNNY     50  42  74 NW5       30.35F                  
PORTSMOUTH NH  MOSUNNY   50  40  70 NW5       30.32F                  
JAFFREY NH     SUNNY     48  38  68 CALM      30.34F                  
KEENE NH       SUNNY     44  41  89 CALM      30.36F                  
BURLINGTON VT  PTSUNNY   44  41  89 E3        30.38R                  
MT. WASHINGTON NOT AVBL                                               
$$

NYZ052-076-151400-
EASTERN NEW YORK
  
CITY           SKY/WX    TMP DP  RH WIND       PRES   REMARKS
ALBANY         MOSUNNY   46  43  89 NW3       30.39S                  
NEW YORK CITY  CLOUDY    57  40  52 NE12      30.34S                  
$$
 
ANZALL-151400-
MARINE OBSERVATIONS
  
STATION/POSITION TIME  TEMP    WIND        PRES    VSBY  WAVE
                       AIR SEA DIR/SP/G                  HT/PER
                 (UTC) (F)     (DEG/KT/KT) (MB)    (MI)  (FT/S)
BOSTON BUOY      1250   57 64  360/ 14/ 16 1025.4          6/ 7
BUZZARDS BAY     1200          360/ 18/ 19 1026.7R
NANTUCKET SOUND  1240      70   20/ 16/ 23   N/A
MASS BAY-STELLWA 1204   57      60/ 14/ 17 1024.3R  1 7/8  7/11
ISLE OF SHOALS   1200   53     360/ 10/ 12 1026.6R
S OF BLOCK IS    1226      70                N/A           6/14
$$

......................KEY.........................
  SKY/WX - SKY CONDITION/PRESENT WEATHER
  TMP    - TEMPERATURE IN FAHRENHEIT
  DWPT   - DEWPOINT IN FAHRENHEIT
  RH     - RELATIVE HUMIDITY IN PERCENT
  WIND   - DIRECTION AND SPEED IN MPH
  PRES   - MEAN SEA LEVEL PRESSURE IN INCHES OF HG
  WCI    - WIND CHILL INDEX
  VSB    - VISIBILITY IN MILES
  HX     - HEAT INDEX
  TC     - TEMPERATURE IN CELSIUS
  VRB    - VARIABLE WIND DIRECTION
  N/A    - NOT AVAILABLE
  
      

Other recent Regional Weather Roundups

Sun Sep 20, 10:04pm

Sun Sep 20, 9:04pm

Sun Sep 20, 8:05pm

Sun Sep 20, 7:04pm

Sun Sep 20, 6:04pm

Sun Sep 20, 5:04pm

Sun Sep 20, 4:04pm

Sun Sep 20, 3:05pm

Sun Sep 20, 2:05pm

Sun Sep 20, 1:04pm

Sun Sep 20, 12:04pm

Sun Sep 20, 11:04am

Sun Sep 20, 10:04am

Sun Sep 20, 9:04am

Sun Sep 20, 8:04am

Sun Sep 20, 7:04am

Sun Sep 20, 6:04am

Sun Sep 20, 5:04am

Sun Sep 20, 4:04am

Sun Sep 20, 3:05am

Sun Sep 20, 2:04am

Sun Sep 20, 1:04am

Sun Sep 20, 12:04am

Sat Sep 19, 11:04pm

Sat Sep 19, 10:04pm

Sat Sep 19, 9:04pm

Sat Sep 19, 8:05pm

Sat Sep 19, 7:04pm

Sat Sep 19, 6:05pm

Sat Sep 19, 5:04pm

Sat Sep 19, 4:04pm

Sat Sep 19, 3:04pm

Sat Sep 19, 2:04pm

Sat Sep 19, 1:05pm

Sat Sep 19, 12:04pm

Sat Sep 19, 11:04am

Sat Sep 19, 10:04am

Sat Sep 19, 9:05am

Sat Sep 19, 8:04am

Sat Sep 19, 7:04am

Sat Sep 19, 6:04am

Sat Sep 19, 5:04am

Sat Sep 19, 4:04am

Sat Sep 19, 3:04am

Sat Sep 19, 2:04am

Sat Sep 19, 1:04am

Sat Sep 19, 12:04am

Fri Sep 18, 11:05pm

Fri Sep 18, 10:04pm

Fri Sep 18, 9:04pm

Fri Sep 18, 8:04pm

Fri Sep 18, 7:04pm

Fri Sep 18, 6:04pm

Fri Sep 18, 5:05pm

Fri Sep 18, 4:04pm

Fri Sep 18, 3:05pm

Fri Sep 18, 2:04pm

Fri Sep 18, 1:04pm

Fri Sep 18, 12:04pm

Fri Sep 18, 11:05am

Fri Sep 18, 10:05am

Fri Sep 18, 9:04am

Fri Sep 18, 8:04am

Fri Sep 18, 7:04am

Fri Sep 18, 6:04am

Fri Sep 18, 5:04am

Fri Sep 18, 4:04am

Fri Sep 18, 3:04am

Fri Sep 18, 2:04am

Fri Sep 18, 1:04am

Fri Sep 18, 12:04am

Thu Sep 17, 11:05pm

Thu Sep 17, 10:04pm

Thu Sep 17, 9:04pm

Thu Sep 17, 8:05pm

Thu Sep 17, 7:04pm

Thu Sep 17, 6:04pm

Thu Sep 17, 5:04pm

Thu Sep 17, 4:04pm

Thu Sep 17, 3:05pm

Thu Sep 17, 2:04pm

Thu Sep 17, 1:04pm

Thu Sep 17, 12:04pm

Thu Sep 17, 11:04am

Thu Sep 17, 10:04am

Thu Sep 17, 9:04am

Thu Sep 17, 8:04am

Thu Sep 17, 7:04am

Thu Sep 17, 6:04am

Thu Sep 17, 5:04am

Thu Sep 17, 4:04am

Thu Sep 17, 3:04am

Thu Sep 17, 2:05am

Thu Sep 17, 1:05am

Thu Sep 17, 12:04am

Wed Sep 16, 11:04pm

Wed Sep 16, 10:04pm

Wed Sep 16, 9:04pm

Wed Sep 16, 8:05pm

Wed Sep 16, 7:04pm

Wed Sep 16, 6:04pm

Wed Sep 16, 5:04pm

Wed Sep 16, 4:04pm

Wed Sep 16, 3:04pm

Wed Sep 16, 2:04pm

Wed Sep 16, 1:04pm

Wed Sep 16, 12:04pm

Wed Sep 16, 11:04am

Wed Sep 16, 10:04am

Wed Sep 16, 9:04am

Wed Sep 16, 8:04am

Wed Sep 16, 7:04am

Wed Sep 16, 6:04am

Wed Sep 16, 5:04am

Wed Sep 16, 4:04am

Wed Sep 16, 3:04am

Wed Sep 16, 2:04am

Wed Sep 16, 1:04am

Wed Sep 16, 12:05am

Tue Sep 15, 11:04pm

Tue Sep 15, 10:04pm

Tue Sep 15, 9:04pm

Tue Sep 15, 8:04pm

Tue Sep 15, 7:04pm

Tue Sep 15, 6:04pm

Tue Sep 15, 5:04pm

Tue Sep 15, 4:05pm

Tue Sep 15, 3:04pm

Tue Sep 15, 2:04pm

Tue Sep 15, 1:04pm

Tue Sep 15, 12:04pm

Tue Sep 15, 11:04am

Tue Sep 15, 10:04am

Tue Sep 15, 8:04am

Tue Sep 15, 7:04am

Tue Sep 15, 6:04am

Tue Sep 15, 5:04am

Tue Sep 15, 4:04am

Tue Sep 15, 3:04am

Tue Sep 15, 2:04am

Tue Sep 15, 1:04am

Tue Sep 15, 12:05am

Mon Sep 14, 11:04pm

Mon Sep 14, 10:04pm

Mon Sep 14, 9:04pm

Mon Sep 14, 8:04pm

Mon Sep 14, 7:04pm

Mon Sep 14, 6:04pm

Mon Sep 14, 5:04pm

Mon Sep 14, 4:05pm

Mon Sep 14, 3:04pm

Mon Sep 14, 2:05pm

Mon Sep 14, 1:04pm

Mon Sep 14, 12:04pm

Mon Sep 14, 11:04am

Mon Sep 14, 10:05am

Mon Sep 14, 9:04am

Mon Sep 14, 8:04am

Mon Sep 14, 7:04am

Mon Sep 14, 6:04am

Mon Sep 14, 5:04am

Mon Sep 14, 4:04am

Mon Sep 14, 3:04am

Mon Sep 14, 2:04am

Mon Sep 14, 1:04am

Mon Sep 14, 12:04am

Sun Sep 13, 11:05pm

Meta data:

ID: cf6b393e-745a-4ac0-b988-22b7e9bcfdac
Link: https://api.weather.gov/products/cf6b393e-745a-4ac0-b988-22b7e9bcfdac